[ hide orbit diagram ]
For accurate long-term ephemerides, please instead use our Horizons system.This orbit viewer was implemented using two-body methods, and hence should not be used for determining accurate long-term trajectories (over several years or decades) or planetary encounter circumstances.
Orbital Elements at Epoch 2459241.5 (2021-Jan-27.0) TDB
Reference: JPL 4 (heliocentric ecliptic J2000)
Element | Value | Uncertainty (1-sigma) | Units |
e | 1.002678365307459 | 0.0033807 | |
a | -2896.048809951662 | 3656 | au |
q | 7.756676661282186 | 0.0028929 | au |
i | 158.0230574182327 | 0.0091417 | deg |
node | 314.8478352815558 | 0.011064 | deg |
peri | 211.5219422434967 | 0.04139 | deg |
M | -.006573263737213396 | 0.01244 | deg |
tp | 2460280.907388374861 (2023-Dec-02.40738837) | 1.1817 | TDB |
period | n/a n/a | n/a n/a | d yr |
n | 6.324049463888124E-6 | 1.1975e-05 | deg/d |
Q | n/a | n/a | au |
|
| | Orbit Determination Parameters
Additional Information
|
[ show covariance matrix ]
|